Home > Time Zones > World Clock > Weather > Palau > Koror > Past weeks

Flag for Palau Weather past 2 weeks in Koror, Palau

Now
81 °F

Cloudy.


Feels Like: 79 °F
Forecast: 78 / 85 °F
Wind: 12 mph from Northeast

Location: Koror / Palau Island

Current Time: Mar 3, 2015 at 9:14:52 AM

Latest Report: Mar 3, 2015 at 8:50 AM


Visibility: 15 mi

Pressure: 29.84 "Hg

Humidity: 20%

Dew point: 36 °F

Location of KororLocation

Historic Weather in Koror — Graph

°F

Koror temperature yesterday

Maximum temperature yesterday: 82 °F (at 7:54 AM)
Minimum temperature yesterday: 75 °F (at 10:50 PM)
Average temperature yesterday: 79 °F

Past Weeks' High & Low Weather Summary

 TemperatureHumidityPressure
High86 °F (Feb 18, 2:50 PM)100% (Feb 16, 8:50 AM)29.93 "Hg (Feb 16, 8:50 AM)
Low75 °F (Feb 16, 9:50 AM)70% (Feb 18, 2:50 PM)29.71 "Hg (Mar 2, 11:50 AM)
Average80 °F84%29.85 "Hg
* Reported Feb 16 7:50 AM — Mar 3 7:50 AM, Koror, Weather by CustomWeather, © 2015

Note: Actual official high and low records may vary slightly from our data, if they occured in-between our weather recording intervals... More about our weather records

Advertising

Koror weather history for previous 24 hours

 ConditionsComfort  
Time TempWeatherWind HumidityBarometerVisibility
7:50 AM
Tue, Mar 3
77 °FCloudy.9 mph94%29.84 "Hg14 mi
6:55 AM77 °FCloudy.7 mph94%29.82 "Hg14 mi
5:51 AM77 °FMostly cloudy.9 mph94%29.81 "Hg14 mi
4:53 AM77 °FMostly cloudy.13 mph94%29.80 "Hg14 mi
3:55 AM77 °FSprinkles. Mostly cloudy.12 mph94%29.79 "Hg11 mi
2:51 AM77 °FMostly cloudy.12 mph94%29.79 "Hg10 mi
1:52 AM79 °FMostly cloudy.7 mph94%29.81 "Hg14 mi
12:54 AM77 °FSprinkles. Mostly cloudy.7 mph94%29.83 "Hg10 mi
11:50 PM
Mon, Mar 2
77 °FMostly cloudy.No wind94%29.84 "Hg14 mi
10:50 PM75 °FSprinkles. Mostly cloudy.7 mph100%29.84 "Hg12 mi
9:50 PM77 °FMostly cloudy.7 mph94%29.84 "Hg13 mi
8:50 PM77 °FSprinkles. Mostly cloudy.15 mph94%29.82 "Hg11 mi
7:55 PM77 °FMostly cloudy.5 mph94%29.80 "Hg13 mi
6:53 PM77 °FRain showers. Mostly cloudy.13 mph94%29.79 "Hg10 mi
5:50 PM77 °FScattered showers. Mostly cloudy.7 mph100%29.77 "Hg13 mi
4:50 PM77 °FSprinkles. Mostly cloudy.3 mph94%29.75 "Hg11 mi
3:50 PM79 °FMostly cloudy.8 mph94%29.74 "Hg13 mi
2:50 PM79 °FMostly cloudy.8 mph94%29.74 "Hg14 mi
1:50 PM79 °FSprinkles. Mostly cloudy.10 mph89%29.75 "Hg11 mi
12:50 PM82 °FMostly cloudy.8 mph84%29.78 "Hg14 mi
11:50 AM81 °FMostly cloudy.10 mph89%29.71 "Hg14 mi
10:50 AM82 °FMostly cloudy.13 mph84%29.81 "Hg14 mi
9:54 AM82 °FMostly cloudy.10 mph84%29.81 "Hg14 mi
Weather by CustomWeather, © 2015

See weather overviewHow to use our weather pages